sat.trackr.live / text

‹ back to catalog

STARLINK-35429

NORAD 66590 · 2025-270C

PAYLOAD ACTIVE UNKNOWN

§ Identity

Operator
Country
US
Launch date
2025-11-22
Launch site
AFETR
Launch vehicle
Mass (kg)
RCS (m²)

Purposes: comms

External: N2YO · Heavens-Above · Gunter

§ Orbital elements

Epoch: 2026-05-24T22:41:58.548192Z

Period
94.27 min
Inclination
43.0025°
Eccentricity
0.0001180
Mean motion
15.27591042 rev/d
Perigee alt
482.2 km
Apogee alt
483.8 km
Semi-major
6,861.2 km
B*
3.5403e-4
RAAN
345.9280°
Arg perigee
272.2417°
Mean anomaly
87.8299°
Rev number
2,947

§ Raw data

STARLINK-354291 66590U 25270C   26144.94581653  .00009496  00000+0  35403-3 0  99952 66590  43.0025 345.9280 0001180 272.2417  87.8299 15.27591042 29479

JSON: /api/v1/satellites/66590 · /tle

For live sub-satellite position, see the globe view (requires WebGL).

§ Visibility from observer

Set your observer location to see the next 7 days of passes ≥ 10°. The values pass through the URL so the page stays shareable.

No JS? Fill the form by hand. The geolocation button needs JavaScript.